[[[{"header":{"parameterUnit":"kt","parameterCategory":2,"dx":1,"dy":1,"la1":30.253999710083008,"la2":30.299108505249023,"lo1":-89.0895004272461,"lo2":-89.04439544677734,"nx":28,"ny":28,"refTime":"2022-10-20T21:00:00:Z","depth":0,"parameterNumber":1,"parameterNumberName":"U-component_of_WINDS"},"data":[-2.0467,-2.0563,-2.0623,-2.0762,-2.084,-2.0945,-2.1003,-2.1084,-2.1164,-2.1299,-2.1389,-2.1461,-2.1568,-2.169,-2.1792,-2.1823,-2.1861,-2.1851,-2.1889,-2.1877,-2.1879,-2.1881,-2.1862,-2.1858,-2.1858,-2.1893,-2.1893,-2.1893,-2.0454,-2.0531,-2.0622,-2.0751,-2.0829,-2.0876,-2.0983,-2.1046,-2.114,-2.124,-2.1331,-2.1456,-2.1563,-2.1675,-2.179,-2.1839,-2.1868,-2.1865,-2.1862,-2.1879,-2.1868,-2.1846,-2.184,-2.184,-2.184,-2.184,-2.184,-2.184,-2.0447,-2.0502,-2.0615,-2.0714,-2.0796,-2.0882,-2.0946,-2.1033,-2.1124,-2.1248,-2.1304,-2.1413,-2.1526,-2.1695,-2.1767,-2.1855,-2.1869,-2.1886,-2.1891,-2.1893,-2.1888,-2.183,-2.1877,-2.1878,-2.1878,-2.1878,-2.1878,0,-2.046,-2.0507,-2.0598,-2.0706,-2.0782,-2.0873,-2.0967,-2.1009,-2.1131,-2.1201,-2.1308,-2.1381,-2.1525,-2.1634,-2.1755,-2.1828,-2.1885,-2.1898,-2.191,-2.1883,-2.1844,-2.1866,-2.1846,-2.1896,-2.1896,-2.1896,-2.1896,-2.1897,-2.0457,-2.0514,-2.0662,-2.0718,-2.0784,-2.0872,-2.0938,-2.1041,-2.1107,-2.1239,-2.1284,-2.1394,-2.1488,-2.1652,-2.1755,-2.1864,-2.1892,-2.1905,-2.1909,-2.1882,-2.1894,-2.1889,-2.1896,-2.1901,-2.19,-2.19,-2.19,0,-2.045,-2.0549,-2.0657,-2.0798,-2.0835,-2.0891,-2.1013,-2.1073,-2.1151,-2.1246,-2.1274,-2.1398,-2.1502,-2.1605,-2.1745,-2.1796,-2.1892,-2.1917,-2.1854,-2.1864,-2.1886,-2.1882,-2.1937,-2.195,-2.1955,-2.1955,-2.1954,0,-2.0487,-2.0558,-2.0701,-2.0758,-2.0842,-2.0943,-2.1023,-2.1098,-2.1196,-2.1272,-2.1352,-2.1421,-2.1541,-2.1626,-2.1701,-2.1798,-2.1824,-2.1869,-2.1887,-2.1861,-2.1856,-2.1898,-2.1898,-2.1928,-2.1927,-2.1927,-2.1927,0,-2.0464,-2.0625,-2.0719,-2.0771,-2.0929,-2.0971,-2.104,-2.115,-2.1214,-2.1314,-2.1356,-2.1466,-2.1525,-2.1609,-2.1704,-2.1703,-2.1824,-2.1843,-2.187,-2.1868,-2.1891,-2.1888,-2.1912,-2.1926,-2.1926,-2.1926,-2.1926,0,-2.0509,-2.0605,-2.0726,-2.086,-2.0898,-2.096,-2.1073,-2.115,-2.1261,-2.1312,-2.1391,-2.1457,-2.1549,-2.156,-2.169,-2.1662,-2.1717,-2.1769,-2.1772,-2.1786,-2.1796,-2.1795,-2.1807,-2.1813,-2.18,-2.1799,-2.1799,0,-2.0457,-2.0605,-2.0693,-2.0806,-2.0889,-2.0972,-2.1044,-2.1139,-2.1213,-2.1295,-2.1377,-2.147,-2.15,-2.1543,-2.1594,-2.1683,-2.1719,-2.1681,-2.1801,-2.1804,-2.1768,-2.1781,-2.1756,-2.1793,-2.1786,-2.1788,-2.1789,0,-2.0429,-2.0618,-2.0632,-2.0697,-2.0838,-2.0907,-2.0989,-2.1103,-2.1153,-2.1251,-2.1324,-2.1457,-2.1486,-2.1556,-2.1621,-2.1668,-2.1697,-2.1692,-2.1697,-2.169,-2.1789,-2.1766,-2.1771,-2.1731,-2.1733,-2.1734,-2.1779,0,-2.0474,-2.0561,-2.0603,-2.074,-2.081,-2.0886,-2.0992,-2.1052,-2.1107,-2.1182,-2.129,-2.1395,-2.1512,-2.1546,-2.16,-2.1675,-2.1679,-2.1707,-2.1726,-2.1733,-2.175,-2.1758,-2.1691,-2.1692,-2.1693,-2.1694,0,0,-2.04,-2.0526,-2.0619,-2.0701,-2.0765,-2.085,-2.0923,-2.0996,-2.1141,-2.1184,-2.1195,-2.1398,-2.1482,-2.1603,-2.1613,-2.166,-2.1684,-2.1677,-2.1728,-2.1732,-2.1735,-2.1752,-2.1758,-2.1695,-2.1696,-2.1696,-2.1696,0,-2.0438,-2.052,-2.0589,-2.0669,-2.0789,-2.0865,-2.0882,-2.1017,-2.1068,-2.1174,-2.1243,-2.1321,-2.1479,-2.1561,-2.1623,-2.1666,-2.1714,-2.1693,-2.168,-2.1734,-2.1736,-2.1739,-2.1755,-2.176,-2.1699,-2.1699,-2.1698,0,-2.0429,-2.0528,-2.0572,-2.0721,-2.0801,-2.0884,-2.0929,-2.1014,-2.1077,-2.1167,-2.127,-2.1343,-2.146,-2.1559,-2.1608,-2.1619,-2.1735,-2.1717,-2.1714,-2.1722,-2.1779,-2.1782,-2.1784,-2.1756,-2.1756,-2.1755,0,0,-2.0448,-2.0528,-2.0666,-2.0737,-2.0783,-2.0896,-2.0951,-2.1011,-2.1113,-2.1153,-2.1248,-2.1346,-2.144,-2.1499,-2.1592,-2.1686,-2.1719,-2.172,-2.1717,-2.1714,-2.172,-2.1777,-2.1779,-2.1755,-2.1755,-2.1754,0,0,-2.0457,-2.0619,-2.0655,-2.0751,-2.0845,-2.0986,-2.1027,-2.1075,-2.1169,-2.1172,-2.1279,-2.1309,-2.1404,-2.1473,-2.1448,-2.1601,-2.1617,-2.1625,-2.1552,-2.155,-2.1548,-2.1529,-2.1509,0,0,0,0,0,-2.055,-2.0599,-2.063,-2.0662,-2.0851,-2.0968,-2.0994,-2.1082,-2.1091,-2.1121,-2.1208,-2.1256,-2.1482,-2.1462,-2.1493,-2.1519,-2.1742,-2.1745,-2.1747,-2.1676,-2.1672,-2.167,0,0,0,0,0,0,-2.0563,-2.0602,-2.0629,-2.077,-2.0814,-2.0968,-2.1003,-2.1029,-2.109,-2.1097,-2.1237,-2.126,-2.1338,-2.1452,-2.1479,-2.1502,-2.15,-2.1743,-2.1745,-2.1747,-2.1675,-2.1672,-2.167,0,0,0,0,0,-2.0574,-2.0605,-2.0885,-2.077,-2.0808,-2.0937,-2.1002,-2.1023,-2.1073,-2.1207,-2.1231,-2.1133,-2.1336,-2.1365,-2.1469,-2.1488,-2.1483,-2.1492,-2.1745,-2.1746,-2.1747,-2.1673,0,0,0,0,0,0,-2.0582,-2.0627,-2.0895,-2.0909,-2.0758,-2.093,-2.096,-2.1018,-2.118,-2.1204,-2.1107,-2.1111,-2.1336,-2.1358,-2.138,-2.1478,-2.1468,-2.1478,-2.1484,-2.1746,-2.1747,-2.1748,0,0,0,0,0,0,-2.0611,-2.0638,-2.0902,-2.0881,-2.0895,-2.0923,-2.095,-2.1051,-2.1181,-2.1072,-2.108,-2.1107,-2.1304,-2.1353,-2.137,-2.1524,-2.1457,-2.1466,-2.1473,-2.1477,-2.1747,-2.1747,0,0,0,0,0,0,-2.0624,-2.0648,-2.0878,-2.0888,-2.09,-2.1074,-2.1014,-2.1204,-2.1161,-2.1064,-2.116,-2.1159,-2.1298,-2.1317,-2.1364,-2.151,-2.1521,-2.1458,-2.1464,-2.1468,-2.1471,0,0,0,0,0,0,0,-2.0635,-2.0452,-2.0806,-2.0894,-2.0904,-2.1047,-2.1051,-2.1055,-2.1161,-2.116,-2.116,-2.116,-2.1404,-2.1415,-2.1425,-2.1498,0,0,-2.1457,-2.1461,0,0,0,0,0,0,0,0,-2.0444,-2.045,-2.0807,-2.081,-2.0813,-2.1047,-2.1051,-2.1054,-2.1161,-2.116,-2.116,-2.116,-2.1407,-2.1415,-2.1424,0,0,0,0,0,0,0,0,0,0,0,0,0,0,0,-2.0807,-2.0809,0,-2.1048,-2.105,-2.1053,-2.1161,-2.116,-2.116,-2.116,-2.1409,-2.1416,-2.1423,0,0,0,0,0,0,0,0,0,0,0,0,0,0,0,0,0,0,0,0,0,0,0,0,0,0,0,0,0,0,0,0,0,0,0,0,0,0,0,0,0,0,0,0,0,0,0,0,0,0,0,0,0,0,0,0,0,0,0,0,0,0,0,0,0,0,0,0,0]}],[{"header":{"parameterUnit":"kt","parameterCategory":2,"dx":1,"dy":1,"la1":30.253999710083008,"la2":30.299108505249023,"lo1":-89.0895004272461,"lo2":-89.04439544677734,"nx":28,"ny":28,"refTime":"2022-10-20T21:00:00:Z","depth":0,"parameterNumber":2,"parameterNumberName":"V-component_of_WINDS"},"data":[0.1931,0.1866,0.1859,0.1781,0.1762,0.1707,0.1685,0.1655,0.1629,0.156,0.1519,0.1504,0.1473,0.1419,0.1372,0.1366,0.1346,0.1329,0.1323,0.1411,0.1422,0.1433,0.1449,0.1325,0.1325,0.1234,0.1233,0.1232,0.1996,0.1977,0.1934,0.1888,0.1851,0.1864,0.1827,0.1794,0.1744,0.1711,0.167,0.1608,0.1557,0.1531,0.148,0.1446,0.1448,0.1433,0.1434,0.1429,0.1522,0.1539,0.1432,0.1432,0.1432,0.1432,0.1432,0.1432,0.2114,0.2075,0.2044,0.1997,0.1971,0.194,0.1901,0.1884,0.184,0.1788,0.1787,0.1728,0.1692,0.1625,0.16,0.1553,0.1567,0.1547,0.1542,0.1537,0.1532,0.1664,0.1543,0.1544,0.1544,0.1544,0.1544,0,0.2197,0.2195,0.2153,0.2109,0.2075,0.2039,0.2005,0.1981,0.197,0.1933,0.188,0.1847,0.1782,0.1729,0.1678,0.1656,0.1662,0.1662,0.1648,0.1648,0.1654,0.1649,0.1801,0.1665,0.1666,0.1667,0.1667,0.1668,0.2315,0.227,0.2234,0.2205,0.2185,0.2139,0.2109,0.2103,0.2072,0.2027,0.1992,0.1939,0.1897,0.181,0.1786,0.1736,0.1738,0.1687,0.173,0.1733,0.1736,0.1738,0.1733,0.1678,0.1677,0.1676,0.1675,0,0.2381,0.2371,0.2299,0.2267,0.2257,0.221,0.2181,0.2141,0.2128,0.207,0.2056,0.2035,0.1981,0.1966,0.19,0.1894,0.1812,0.1816,0.1825,0.1824,0.1777,0.1781,0.1625,0.1604,0.1734,0.1733,0.1732,0,0.2476,0.2418,0.2405,0.2364,0.2299,0.2295,0.2229,0.2212,0.2182,0.2136,0.2143,0.21,0.2088,0.2041,0.2031,0.1962,0.195,0.194,0.1938,0.1939,0.194,0.1919,0.1925,0.1936,0.1937,0.1937,0.1938,0,0.2581,0.2505,0.2439,0.242,0.2378,0.2347,0.2327,0.2294,0.2264,0.2222,0.2203,0.2154,0.2127,0.2088,0.2076,0.2106,0.1991,0.2029,0.1981,0.1981,0.1955,0.1956,0.1824,0.1939,0.1939,0.194,0.194,0,0.2656,0.2618,0.2523,0.2489,0.2469,0.2424,0.2378,0.2337,0.23,0.2292,0.2259,0.2261,0.22,0.2239,0.2154,0.2197,0.2169,0.2154,0.215,0.2143,0.2187,0.2113,0.1989,0.1975,0.2137,0.2139,0.214,0,0.2778,0.268,0.2677,0.2586,0.2539,0.2552,0.2502,0.2469,0.2455,0.2411,0.2393,0.2342,0.2368,0.235,0.231,0.2289,0.2234,0.2296,0.2228,0.2226,0.2238,0.2125,0.211,0.2019,0.2161,0.2159,0.2158,0,0.2872,0.2824,0.2808,0.2786,0.2744,0.2704,0.2646,0.2596,0.2567,0.253,0.248,0.2408,0.2424,0.2394,0.239,0.2349,0.2271,0.2371,0.237,0.2353,0.2171,0.2157,0.2142,0.2277,0.2275,0.2272,0.2174,0,0.2987,0.2936,0.2893,0.2844,0.2811,0.2753,0.274,0.2707,0.2708,0.2694,0.2621,0.2588,0.2534,0.2513,0.2512,0.2424,0.2436,0.2453,0.2489,0.2415,0.2382,0.2369,0.2539,0.254,0.2541,0.2542,0,0,0.3106,0.3034,0.3031,0.2976,0.2948,0.2962,0.2901,0.2875,0.2821,0.28,0.2821,0.2713,0.2685,0.2597,0.2573,0.2551,0.2533,0.2559,0.2451,0.2441,0.2431,0.2396,0.2383,0.2543,0.2544,0.2544,0.2544,0,0.3145,0.3122,0.3063,0.3037,0.2997,0.2986,0.2972,0.2934,0.2922,0.2851,0.286,0.2814,0.2728,0.2697,0.267,0.257,0.2578,0.2555,0.2506,0.2459,0.2448,0.2438,0.2402,0.2389,0.2546,0.2546,0.2546,0,0.3235,0.3209,0.3179,0.3118,0.3091,0.3042,0.3077,0.3023,0.2985,0.2999,0.2928,0.2907,0.2864,0.2783,0.2746,0.2762,0.262,0.2662,0.2657,0.2651,0.2605,0.2592,0.258,0.2736,0.2737,0.2738,0,0,0.327,0.3224,0.3193,0.3125,0.3108,0.309,0.3062,0.306,0.3023,0.3008,0.2982,0.2944,0.2894,0.2861,0.2813,0.2725,0.2715,0.2686,0.2677,0.267,0.2661,0.2613,0.26,0.2741,0.2741,0.2741,0,0,0.3286,0.3249,0.3258,0.3178,0.3144,0.3107,0.3066,0.3074,0.303,0.3035,0.3026,0.3015,0.2939,0.2917,0.2957,0.2824,0.286,0.285,0.2841,0.283,0.2821,0.2827,0.2986,0,0,0,0,0,0.332,0.3254,0.3262,0.3247,0.3167,0.3104,0.3093,0.3086,0.3113,0.308,0.3059,0.307,0.2937,0.2972,0.2955,0.2911,0.2777,0.277,0.2764,0.2732,0.272,0.271,0,0,0,0,0,0,0.3314,0.3296,0.3264,0.3225,0.3207,0.3106,0.3149,0.3145,0.3116,0.3119,0.3074,0.3069,0.306,0.298,0.2965,0.2923,0.2991,0.2774,0.2769,0.2764,0.2728,0.2718,0.271,0,0,0,0,0,0.3309,0.3294,0.3169,0.3226,0.321,0.3186,0.3151,0.3148,0.3126,0.3093,0.3088,0.3123,0.3059,0.3045,0.2971,0.293,0.3001,0.2996,0.2771,0.2766,0.2763,0.2723,0,0,0,0,0,0,0.3306,0.329,0.3166,0.3161,0.3251,0.3191,0.3182,0.3151,0.3101,0.3096,0.3142,0.3146,0.3057,0.3047,0.3037,0.2933,0.3009,0.3004,0.3,0.2767,0.2764,0.2761,0,0,0,0,0,0,0.3298,0.3286,0.3163,0.3195,0.3193,0.3196,0.3188,0.3122,0.31,0.3153,0.3154,0.3144,0.3071,0.3048,0.304,0.2938,0.3016,0.301,0.3007,0.3004,0.2765,0.2762,0,0,0,0,0,0,0.3293,0.3282,0.3196,0.3195,0.3194,0.3135,0.3138,0.3056,0.313,0.3155,0.3136,0.3139,0.3071,0.3063,0.3042,0.2944,0.294,0.3016,0.3012,0.3009,0.3008,0,0,0,0,0,0,0,0.3289,0.3362,0.3196,0.3195,0.3194,0.3113,0.3112,0.3111,0.3131,0.3133,0.3136,0.3138,0.3046,0.304,0.3034,0.2948,0,0,0.3016,0.3013,0,0,0,0,0,0,0,0,0.3366,0.3363,0.3196,0.3195,0.3194,0.3113,0.3112,0.3111,0.3131,0.3133,0.3135,0.3137,0.3045,0.304,0.3035,0,0,0,0,0,0,0,0,0,0,0,0,0,0,0,0.3196,0.3195,0,0.3113,0.3112,0.3111,0.3132,0.3133,0.3135,0.3136,0.3043,0.3039,0.3035,0,0,0,0,0,0,0,0,0,0,0,0,0,0,0,0,0,0,0,0,0,0,0,0,0,0,0,0,0,0,0,0,0,0,0,0,0,0,0,0,0,0,0,0,0,0,0,0,0,0,0,0,0,0,0,0,0,0,0,0,0,0,0,0,0,0,0,0,0]}]]]